TimeCDT,TemperatureF,Dew PointF,Humidity,Sea Level PressureIn,VisibilityMPH,Wind Direction,Wind SpeedMPH,Gust SpeedMPH,PrecipitationIn,Events,Conditions,WindDirDegrees,DateUTC
12:15 AM,55.9,36.9,49,30.07,10.0,South,10.4,-,N/A,,Clear,180,2013-04-26 05:15:00
12:35 AM,55.4,37.0,50,30.06,10.0,South,10.4,-,N/A,,Clear,170,2013-04-26 05:35:00
12:55 AM,55.4,36.7,49,30.06,10.0,South,12.7,-,N/A,,Clear,180,2013-04-26 05:55:00
1:15 AM,54.5,36.7,51,30.07,10.0,South,9.2,-,N/A,,Clear,170,2013-04-26 06:15:00
1:35 AM,54.0,37.0,53,30.07,10.0,South,9.2,-,N/A,,Clear,170,2013-04-26 06:35:00
1:55 AM,54.0,36.9,52,30.06,10.0,South,11.5,17.3,N/A,,Clear,180,2013-04-26 06:55:00
2:15 AM,53.8,36.9,53,30.05,10.0,South,15.0,-,N/A,,Clear,170,2013-04-26 07:15:00
2:35 AM,53.2,37.4,55,30.05,10.0,South,8.1,-,N/A,,Clear,190,2013-04-26 07:35:00
2:55 AM,52.7,37.2,56,30.05,10.0,South,6.9,-,N/A,,Clear,180,2013-04-26 07:55:00
3:15 AM,52.9,37.2,55,30.04,10.0,South,8.1,-,N/A,,Clear,180,2013-04-26 08:15:00
3:35 AM,53.6,37.2,54,30.03,10.0,South,10.4,-,N/A,,Clear,180,2013-04-26 08:35:00
3:55 AM,53.6,37.4,54,30.03,10.0,South,8.1,-,N/A,,Clear,180,2013-04-26 08:55:00
4:15 AM,52.9,38.3,58,30.03,10.0,South,8.1,-,N/A,,Clear,170,2013-04-26 09:15:00
4:35 AM,52.5,38.7,59,30.02,10.0,South,9.2,-,N/A,,Clear,170,2013-04-26 09:35:00
4:55 AM,51.8,39.2,62,30.02,10.0,South,5.8,-,N/A,,Clear,170,2013-04-26 09:55:00
5:15 AM,51.8,39.4,63,30.03,10.0,South,3.5,-,N/A,,Clear,180,2013-04-26 10:15:00
5:35 AM,50.5,39.6,66,30.02,10.0,South,5.8,-,N/A,,Clear,170,2013-04-26 10:35:00
5:55 AM,50.2,40.1,68,30.02,10.0,South,3.5,-,N/A,,Clear,180,2013-04-26 10:55:00
6:15 AM,49.5,40.1,70,30.03,10.0,South,3.5,-,N/A,,Clear,180,2013-04-26 11:15:00
6:35 AM,49.1,40.1,71,30.03,10.0,South,6.9,-,N/A,,Clear,170,2013-04-26 11:35:00
6:55 AM,49.6,40.1,70,30.03,10.0,South,8.1,-,N/A,,Clear,170,2013-04-26 11:55:00
7:15 AM,50.9,40.1,67,30.03,10.0,South,8.1,-,N/A,,Clear,180,2013-04-26 12:15:00
7:35 AM,52.2,40.5,64,30.04,10.0,South,10.4,-,N/A,,Clear,180,2013-04-26 12:35:00
7:55 AM,52.7,40.8,64,30.05,10.0,South,11.5,-,N/A,,Clear,180,2013-04-26 12:55:00
8:15 AM,53.6,41.4,63,30.06,10.0,South,15.0,-,N/A,,Clear,180,2013-04-26 13:15:00
8:35 AM,54.7,42.1,62,30.06,10.0,South,12.7,18.4,N/A,,Clear,180,2013-04-26 13:35:00
8:55 AM,56.7,42.3,59,30.07,10.0,South,15.0,21.9,N/A,,Clear,180,2013-04-26 13:55:00
9:15 AM,57.2,42.3,57,30.07,10.0,South,15.0,-,N/A,,Clear,190,2013-04-26 14:15:00
9:35 AM,58.1,42.8,57,30.08,10.0,SSW,12.7,17.3,N/A,,Clear,200,2013-04-26 14:35:00
9:55 AM,59.9,43.0,54,30.08,10.0,SSW,16.1,-,N/A,,Clear,200,2013-04-26 14:55:00
10:15 AM,60.3,43.0,53,30.07,10.0,South,16.1,-,N/A,,Clear,190,2013-04-26 15:15:00
10:35 AM,62.1,43.7,51,30.08,10.0,South,15.0,18.4,N/A,,Clear,190,2013-04-26 15:35:00
10:55 AM,62.2,43.5,50,30.09,10.0,South,17.3,-,N/A,Thunderstorm,Clear,190,2013-04-26 15:55:00
11:15 AM,62.8,43.9,50,30.09,10.0,South,13.8,23.0,N/A,,Clear,180,2013-04-26 16:15:00
11:35 AM,63.5,44.8,51,30.09,10.0,South,15.0,-,N/A,,Clear,180,2013-04-26 16:35:00
11:55 AM,64.6,45.1,49,30.09,10.0,South,13.8,18.4,N/A,,Clear,180,2013-04-26 16:55:00
12:15 PM,64.6,45.3,50,30.09,10.0,South,9.2,-,N/A,,Clear,180,2013-04-26 17:15:00
12:35 PM,65.7,45.9,49,30.09,10.0,South,15.0,-,N/A,,Clear,170,2013-04-26 17:35:00
12:55 PM,65.5,47.1,51,30.09,10.0,South,13.8,20.7,N/A,,Scattered Clouds,170,2013-04-26 17:55:00
1:15 PM,66.2,47.1,50,30.09,10.0,South,15.0,20.7,N/A,,Scattered Clouds,190,2013-04-26 18:15:00
1:35 PM,67.3,47.5,49,30.08,10.0,South,13.8,19.6,N/A,,Clear,170,2013-04-26 18:35:00
1:55 PM,67.1,47.5,49,30.08,10.0,SSE,9.2,-,N/A,,Clear,160,2013-04-26 18:55:00
2:15 PM,67.3,47.5,49,30.08,10.0,South,9.2,16.1,N/A,,Scattered Clouds,190,2013-04-26 19:15:00
2:35 PM,67.6,47.3,48,30.08,10.0,SSE,9.2,-,N/A,,Mostly Cloudy,160,2013-04-26 19:35:00
2:55 PM,66.9,48.6,52,30.08,10.0,SSE,10.4,16.1,N/A,,Mostly Cloudy,160,2013-04-26 19:55:00
3:15 PM,68.0,48.4,49,30.08,10.0,South,10.4,18.4,N/A,,Mostly Cloudy,180,2013-04-26 20:15:00
3:35 PM,67.1,49.6,53,30.08,10.0,SSE,15.0,20.7,N/A,,Overcast,150,2013-04-26 20:35:00
3:55 PM,65.8,50.2,57,30.09,10.0,South,12.7,19.6,N/A,,Overcast,190,2013-04-26 20:55:00
4:15 PM,66.0,50.0,56,30.09,10.0,South,15.0,19.6,N/A,,Mostly Cloudy,190,2013-04-26 21:15:00
4:35 PM,65.1,49.3,56,30.09,10.0,South,15.0,19.6,N/A,,Mostly Cloudy,170,2013-04-26 21:35:00
4:55 PM,65.3,49.5,57,30.09,10.0,South,11.5,-,N/A,,Scattered Clouds,170,2013-04-26 21:55:00
5:15 PM,64.8,49.6,58,30.09,10.0,South,11.5,-,N/A,,Scattered Clouds,180,2013-04-26 22:15:00
5:35 PM,63.9,49.1,59,30.10,10.0,SSE,9.2,-,N/A,,Scattered Clouds,160,2013-04-26 22:35:00
5:55 PM,64.0,49.3,59,30.10,10.0,SSE,10.4,-,N/A,,Scattered Clouds,150,2013-04-26 22:55:00
6:15 PM,64.8,48.7,56,30.11,10.0,SE,9.2,-,N/A,Thunderstorm,Clear,140,2013-04-26 23:15:00
6:35 PM,64.2,48.4,56,30.12,10.0,SSE,11.5,-,N/A,,Clear,160,2013-04-26 23:35:00
6:55 PM,63.5,48.4,58,30.12,10.0,SSE,11.5,-,N/A,,Clear,160,2013-04-26 23:55:00
7:15 PM,61.0,48.4,63,30.13,10.0,South,13.8,-,N/A,,Clear,170,2013-04-27 00:15:00
7:35 PM,58.6,48.0,68,30.14,10.0,South,12.7,-,N/A,,Clear,170,2013-04-27 00:35:00
7:55 PM,56.7,47.7,72,30.14,10.0,SSE,12.7,-,N/A,,Clear,160,2013-04-27 00:55:00
8:15 PM,55.0,47.3,75,30.14,10.0,South,9.2,-,N/A,,Clear,170,2013-04-27 01:15:00
8:35 PM,53.8,46.9,78,30.15,10.0,SSE,8.1,-,N/A,,Clear,160,2013-04-27 01:35:00
8:55 PM,53.1,46.9,80,30.15,10.0,South,8.1,-,N/A,,Clear,170,2013-04-27 01:55:00
9:15 PM,52.0,46.8,82,30.16,10.0,South,5.8,-,N/A,,Clear,180,2013-04-27 02:15:00
9:35 PM,51.4,46.8,84,30.16,10.0,SSE,6.9,-,N/A,,Clear,160,2013-04-27 02:35:00
9:55 PM,50.7,46.4,85,30.18,10.0,South,5.8,-,N/A,,Clear,170,2013-04-27 02:55:00
10:15 PM,49.6,45.5,86,30.18,10.0,Calm,Calm,-,N/A,,Clear,0,2013-04-27 03:15:00
10:35 PM,49.1,45.3,87,30.19,10.0,Calm,Calm,-,N/A,,Mostly Cloudy,0,2013-04-27 03:35:00
10:55 PM,48.7,45.5,89,30.19,7.0,SW,3.5,-,N/A,,Overcast,230,2013-04-27 03:55:00
11:15 PM,51.1,47.1,86,30.19,10.0,Calm,Calm,-,N/A,,Overcast,0,2013-04-27 04:15:00
11:35 PM,52.0,47.3,84,30.19,10.0,South,6.9,-,N/A,,Overcast,190,2013-04-27 04:35:00
11:55 PM,52.0,47.3,84,30.19,10.0,South,4.6,-,N/A,,Overcast,170,2013-04-27 04:55:00